Погода в Демидове

Россия / Смоленская область     55°15′51″N   31°30′54″E
темп.,
°C
ветер,
м/с
пор.,
м/с
влажн.,
%
обл.,
%
осадки,
мм/ч
давл.,
гПа
погр.,
м
4 марта, чт
чт400:00+1з6158368 0.0 1013568
03:00−1зюз5138065 0.0 1010653
06:000з5108696 0.0 1006720
09:000з498698 0.0 1005499
12:00+1з5992100 0.1 1004564
15:00+1з5895100 0.3 1003573
18:00−1ссз3892100 1.0 1004696
21:00−2ссз3782100 1.0 1005246
5 марта, пт
пт500:00−3сз3883100 0.0 1006360
03:00−4сз389051 0.0 1008452
06:00−5ссз378764 0.0 1009455
09:00−5ссз358232 0.0 1010443
12:00−3сз23620 0.0 1011780
15:00−1з23563 0.0 10121039
18:00−2юз126287 0.0 101248
21:00−3юз258293 0.1 1014416
6 марта, сб
сб600:00−4ссз6988100 0.6 1015568
03:00−6ссз5985100 1.1 1017827
06:00−7ссз5881100 0.1 1018704
09:00−7ссз478388 0.1 1020693
12:00−5сз456799 0.1 10211057
15:00−3зсз4659100 0.1 10201289
18:00−4зюз486066 0.0 1018834
21:00−4зюз6125969 0.0 10161063
7 марта, вс
вс700:00−3зюз71565100 0.0 10121225
03:00−2зюз81667100 0.0 10071247
06:00−3зюз91790100 0.8 10021166
09:00−1зюз91889100 1.9 9991325
12:00−3сз71289100 4.3 9981162
15:00−2зсз81557100 4.4 9992339
18:00−4зсз7157065 0.3 10001772
21:00−5з6147068 0.4 10011436
8 марта, пн
пн800:00−6зсз61284100 0.1 10021102
03:00−7сз61180100 0.3 10051149
06:00−9сз4984100 0.1 1006999
09:00−8сз598398 0.2 10091032
12:00−7ссз5773100 0.1 10111171
15:00−7ссз5771100 0.3 10131217
18:00−8ссз5979100 0.1 10151054
21:00−10ссз41083100 0.1 1018779